QPF
0.01 0.00 0.03 0.00 0.00 0.00 0.00 0.00 0.00 0.00 0.00 0.00 0.00 0.00 0.00 0.00 0.00 0.00 0.00 0.00 0.00 0.00 0.00 0.00 0.00 0.04 0.01 0.00 0.00 0.00 0.00 0.00 0.00 0.00 0.00 0.00 0.00 0.00 0.00 0.00 0.00 0.00 0.00
0.00 0.00 0.01 0.00 0.00 0.00 0.00 0.00 0.00 0.00 0.00 0.00 0.00 0.00 0.00 0.00 0.00 0.00 0.00 0.00 0.00 0.00 0.00 0.00 0.00 0.00 0.00 0.00 0.00 0.00 0.00 0.00 0.00 0.00 0.00 0.00 0.00 0.00 0.00 0.00 0.00 0.00 0.00
0.00 0.00 0.00 0.01 0.00 0.00 0.00 0.00 0.00 0.00 0.00 0.00 0.00 0.00 0.00 0.00 0.00 0.00 0.00 0.00 0.02 0.01 0.00 0.00 0.00 0.00 0.00 0.00 0.00 0.00 0.00 0.00 0.00 0.00 0.00 0.00 0.00 0.00 0.00 0.00 0.00 0.00 0.00
0.00 0.00 0.00 0.00 0.00 0.00 0.00 0.00 0.00 0.00 0.00 0.00 0.00 0.00 0.00 0.00 0.00 0.00 0.00 0.00 0.02 0.01 0.00 0.00 0.00 0.00 0.00 0.01 0.00 0.00 0.00 0.00 0.00 0.00 0.00 0.00 0.00 0.00 0.00 0.00 0.00 0.00 0.00
0.00 0.00 0.00 0.00 0.00 0.00 0.00 0.00 0.00 0.00 0.01 0.00 0.00 0.00 0.00 0.00 0.00 0.00 0.00 0.00 0.00 0.00 0.00 0.00 0.00 0.00 0.00 0.00 0.00 0.00 0.00 0.00 0.00 0.00 0.00 0.00 0.00 0.00 0.00 0.00 0.00 0.00 0.00
0.00 0.00 0.00 0.00 0.00 0.00 0.00 0.00 0.00 0.00 0.00 0.00 0.00 0.00 0.00 0.00 0.00 0.00 0.00 0.00 0.00 0.00 0.00 0.00 0.00 0.00 0.00 0.00 0.00 0.00 0.00 0.00 0.00 0.00 0.00 0.00 0.00 0.00 0.00 0.00 0.00 0.00 0.00
0.00 0.00 0.00 0.00 0.00 0.00 0.00 0.00 0.00 0.00 0.00 0.00 0.00 0.00 0.00 0.00 0.00 0.00 0.00 0.00 0.00 0.00 0.00 0.00 0.00 0.00 0.00 0.00 0.00 0.01 0.00 0.00 0.00 0.00 0.00 0.00 0.00 0.00 0.00 0.00 0.00 0.00 0.00
0.00 0.00 0.00 0.00 0.00 0.00 0.00 0.00 0.00 0.00 0.00 0.00 0.00 0.00 0.00 0.00 0.00 0.00 0.00 0.00 0.00 0.00 0.00 0.00 0.00 0.00 0.00 0.00 0.00 0.00 0.00 0.00 0.00 0.00 0.00 0.00 0.00 0.00 0.00 0.00 0.00 0.00 0.00
0.00 0.00 0.00 0.00 0.00 0.00 0.00 0.00 0.00 0.00 0.00 0.00 0.00 0.00 0.00 0.00 0.00 0.00 0.00 0.00 0.00 0.00 0.00 0.00 0.00 0.00 0.00 0.00 0.00 0.00 0.00 0.00 0.00 0.00 0.00 0.00 0.00 0.00 0.00 0.00 0.00 0.00 0.00
0.00 0.00 0.00 0.00 0.00 0.00 0.00 0.00 0.00 0.00 0.00 0.00 0.00 0.00 0.00 0.00 0.00 0.00 0.00 0.00 0.02 0.01 0.01 0.00 0.00 0.00 0.00 0.00 0.00 0.00 0.00 0.00 0.00 0.00 0.00 0.00 0.00 0.00 0.00 0.00 0.00 0.00 0.00
0.00 0.00 0.00 0.00 0.00 0.00 0.00 0.00 0.00 0.00 0.00 0.00 0.00 0.00 0.00 0.00 0.00 0.00 0.00 0.00 0.00 0.02 0.04 0.04 0.03 0.01 0.00 0.00 0.00 0.00 0.00 0.00 0.00 0.00 0.00 0.00 0.00 0.00 0.00 0.00 0.00 0.00 0.00
0.00 0.00 0.00 0.00 0.00 0.00 0.00 0.00 0.00 0.00 0.00 0.00 0.00 0.00 0.00 0.00 0.00 0.00 0.00 0.00 0.00 0.00 0.02 0.04 0.05 0.04 0.01 0.00 0.00 0.00 0.00 0.00 0.00 0.00 0.00 0.00 0.00 0.00 0.00 0.00 0.00 0.00 0.00
0.00 0.00 0.00 0.00 0.00 0.00 0.00 0.00 0.00 0.00 0.00 0.00 0.00 0.00 0.00 0.00 0.00 0.00 0.00 0.00 0.00 0.00 0.00 0.00 0.00 0.01 0.00 0.00 0.00 0.00 0.00 0.00 0.00 0.00 0.00 0.00 0.00 0.00 0.00 0.00 0.00 0.00 0.00
0.00 0.00 0.00 0.00 0.00 0.00 0.00 0.00 0.00 0.00 0.00 0.00 0.00 0.00 0.00 0.00 0.00 0.00 0.00 0.00 0.00 0.00 0.00 0.01 0.01 0.01 0.01 0.02 0.02 0.01 0.01 0.00 0.00 0.00 0.00 0.00 0.00 0.00 0.00 0.00 0.00 0.00 0.00
0.00 0.00 0.00 0.00 0.00 0.00 0.00 0.00 0.00 0.00 0.00 0.00 0.00 0.00 0.00 0.00 0.00 0.00 0.00 0.00 0.00 0.00 0.00 0.00 0.00 0.00 0.00 0.01 0.01 0.01 0.01 0.02 0.02 0.02 0.00 0.00 0.00 0.00 0.00 0.00 0.00 0.00 0.00
0.00 0.00 0.00 0.00 0.00 0.00 0.00 0.00 0.00 0.00 0.00 0.00 0.00 0.00 0.00 0.00 0.00 0.00 0.00 0.00 0.00 0.00 0.00 0.00 0.00 0.00 0.00 0.00 0.00 0.01 0.01 0.02 0.05 0.05 0.05 0.05 0.04 0.01 0.00 0.00 0.00 0.00 0.00
0.00 0.00 0.00 0.00 0.00 0.00 0.00 0.00 0.00 0.00 0.00 0.00 0.00 0.00 0.00 0.00 0.00 0.00 0.00 0.00 0.00 0.00 0.00 0.00 0.00 0.00 0.00 0.00 0.00 0.00 0.00 0.01 0.02 0.03 0.05 0.08 0.11 0.08 0.05 0.01 0.00 0.00 0.00
0.00 0.00 0.00 0.00 0.00 0.00 0.00 0.00 0.00 0.00 0.00 0.00 0.00 0.00 0.00 0.00 0.00 0.00 0.00 0.00 0.00 0.00 0.00 0.00 0.00 0.00 0.00 0.00 0.00 0.00 0.00 0.00 0.00 0.01 0.02 0.04 0.06 0.08 0.08 0.07 0.03 0.01 0.01
0.00 0.00 0.00 0.00 0.00 0.00 0.00 0.00 0.00 0.00 0.00 0.00 0.00 0.00 0.00 0.00 0.00 0.00 0.00 0.00 0.00 0.00 0.00 0.00 0.00 0.00 0.00 0.00 0.00 0.00 0.00 0.00 0.00 0.00 0.01 0.01 0.03 0.06 0.11 0.10 0.11 0.08 0.05
0.00 0.00 0.00 0.00 0.00 0.00 0.00 0.00 0.00 0.00 0.00 0.00 0.00 0.00 0.00 0.00 0.00 0.00 0.00 0.00 0.00 0.00 0.00 0.00 0.00 0.00 0.00 0.00 0.00 0.00 0.00 0.00 0.00 0.00 0.00 0.00 0.00 0.00 0.02 0.05 0.11 0.14 0.15
0.00 0.00 0.00 0.00 0.00 0.00 0.00 0.00 0.00 0.00 0.00 0.00 0.00 0.00 0.00 0.00 0.00 0.00 0.00 0.00 0.00 0.00 0.00 0.00 0.00 0.00 0.00 0.00 0.00 0.00 0.00 0.00 0.00 0.00 0.00 0.00 0.00 0.00 0.00 0.03 0.06 0.07 0.09
0.00 0.00 0.00 0.00 0.00 0.00 0.00 0.00 0.00 0.00 0.00 0.00 0.00 0.00 0.00 0.00 0.00 0.00 0.00 0.00 0.00 0.00 0.00 0.00 0.00 0.00 0.00 0.00 0.00 0.00 0.00 0.00 0.00 0.00 0.00 0.01 0.02 0.04 0.04 0.04 0.05 0.07 0.07
0.00 0.00 0.00 0.00 0.00 0.00 0.00 0.00 0.00 0.00 0.00 0.00 0.00 0.00 0.00 0.00 0.00 0.00 0.00 0.00 0.00 0.00 0.00 0.00 0.00 0.00 0.00 0.00 0.00 0.00 0.01 0.00 0.00 0.00 0.00 0.00 0.00 0.03 0.06 0.11 0.12 0.12 0.09
0.00 0.00 0.00 0.00 0.00 0.00 0.00 0.00 0.00 0.00 0.00 0.00 0.00 0.00 0.00 0.00 0.00 0.00 0.00 0.00 0.00 0.00 0.00 0.00 0.00 0.00 0.00 0.00 0.00 0.00 0.00 0.00 0.00 0.00 0.00 0.00 0.00 0.00 0.02 0.05 0.07 0.09 0.09
0.00 0.00 0.00 0.00 0.00 0.00 0.00 0.00 0.00 0.00 0.00 0.00 0.00 0.00 0.00 0.00 0.00 0.00 0.00 0.00 0.00 0.00 0.00 0.00 0.00 0.00 0.00 0.00 0.00 0.00 0.00 0.00 0.00 0.00 0.00 0.00 0.00 0.01 0.00 0.01 0.02 0.06 0.29
0.00 0.00 0.00 0.00 0.00 0.00 0.00 0.00 0.00 0.00 0.00 0.00 0.00 0.00 0.00 0.00 0.00 0.00 0.00 0.00 0.00 0.00 0.00 0.00 0.00 0.00 0.00 0.00 0.00 0.00 0.00 0.00 0.00 0.00 0.00 0.00 0.00 0.00 0.02 0.02 0.10 0.47 0.69
MSLP
1016.54 1016.39 1016.45 1016.68 1016.85 1016.95 1017.09 1017.22 1017.33 1017.37 1017.41 1017.43 1017.47 1017.51 1017.58 1017.58 1017.56 1017.56 1017.51 1017.53 1017.53 1017.47 1017.42 1017.32 1017.18 1017.20 1017.22 1017.31 1017.39 1017.40 1017.39 1017.44 1017.54 1017.63 1017.70 1017.73 1017.73 1017.70 1017.68 1017.38 1017.57 1017.55 1017.57
1015.89 1016.27 1016.44 1016.67 1016.82 1016.97 1017.13 1017.29 1017.42 1017.46 1017.53 1017.58 1017.62 1017.65 1017.66 1017.69 1017.65 1017.63 1017.64 1017.62 1017.57 1017.54 1017.51 1017.49 1017.40 1017.39 1017.39 1017.46 1017.52 1017.55 1017.60 1017.63 1017.64 1017.77 1017.85 1017.85 1017.76 1017.72 1017.79 1017.79 1017.75 1017.74 1017.75
1015.86 1016.09 1016.47 1016.73 1016.92 1017.08 1017.23 1017.35 1017.53 1017.59 1017.66 1017.70 1017.73 1017.76 1017.78 1017.78 1017.75 1017.72 1017.74 1017.67 1017.55 1017.51 1017.49 1017.53 1017.53 1017.56 1017.49 1017.62 1017.66 1017.70 1017.74 1017.73 1017.77 1017.88 1018.00 1018.10 1018.03 1017.72 1017.78 1017.81 1017.77 1017.78 1017.81
1015.86 1016.19 1016.50 1016.81 1017.03 1017.18 1017.29 1017.37 1017.49 1017.55 1017.63 1017.73 1017.77 1017.78 1017.78 1017.77 1017.74 1017.78 1017.77 1017.72 1017.41 1017.37 1017.59 1017.63 1017.69 1017.71 1017.65 1017.67 1017.76 1017.83 1017.83 1017.81 1017.79 1017.91 1018.01 1017.98 1017.90 1017.84 1017.81 1017.86 1017.83 1017.79 1017.83
1016.17 1016.31 1016.63 1016.88 1017.08 1017.22 1017.30 1017.37 1017.45 1017.50 1017.52 1017.58 1017.66 1017.72 1017.75 1017.76 1017.72 1017.74 1017.74 1017.71 1017.57 1017.49 1017.58 1017.64 1017.73 1017.77 1017.78 1017.76 1017.76 1017.86 1017.87 1017.84 1017.79 1017.80 1018.01 1017.88 1017.86 1017.68 1017.69 1017.77 1017.84 1017.87 1017.83
1016.62 1016.67 1016.84 1016.97 1017.15 1017.26 1017.33 1017.33 1017.36 1017.45 1017.48 1017.52 1017.55 1017.60 1017.64 1017.67 1017.68 1017.69 1017.73 1017.72 1017.62 1017.53 1017.52 1017.57 1017.64 1017.74 1017.76 1017.77 1017.74 1017.73 1017.77 1017.79 1017.80 1017.82 1017.90 1017.89 1017.59 1017.57 1017.70 1017.74 1017.74 1017.87 1017.87
1017.15 1017.01 1017.12 1017.20 1017.33 1017.43 1017.44 1017.44 1017.42 1017.45 1017.45 1017.48 1017.51 1017.51 1017.52 1017.54 1017.53 1017.51 1017.53 1017.55 1017.53 1017.50 1017.47 1017.46 1017.47 1017.55 1017.64 1017.68 1017.67 1017.61 1017.60 1017.62 1017.65 1017.65 1017.66 1017.69 1017.48 1017.32 1017.51 1017.74 1017.89 1017.86 1017.84
1017.27 1017.29 1017.35 1017.44 1017.48 1017.56 1017.65 1017.60 1017.50 1017.49 1017.40 1017.41 1017.40 1017.33 1017.30 1017.31 1017.32 1017.33 1017.32 1017.31 1017.31 1017.32 1017.30 1017.25 1017.21 1017.24 1017.36 1017.42 1017.43 1017.43 1017.45 1017.52 1017.48 1017.49 1017.43 1017.48 1017.43 1017.01 1017.24 1017.46 1017.65 1017.76 1017.83
1017.51 1017.61 1017.74 1017.67 1017.68 1017.69 1017.73 1017.61 1017.60 1017.57 1017.47 1017.46 1017.40 1017.33 1017.21 1017.20 1017.18 1017.12 1017.06 1017.01 1017.01 1017.00 1017.00 1017.01 1017.01 1017.04 1017.06 1017.11 1017.13 1017.17 1017.23 1017.30 1017.37 1017.32 1017.14 1017.14 1017.09 1016.71 1016.77 1017.01 1017.34 1017.53 1017.60
1017.98 1018.01 1017.96 1017.89 1017.88 1017.97 1017.81 1017.63 1017.52 1017.49 1017.44 1017.37 1017.33 1017.27 1017.22 1017.13 1017.02 1016.90 1016.78 1016.66 1016.64 1016.57 1016.65 1016.73 1016.77 1016.81 1016.83 1016.85 1016.87 1016.88 1016.92 1017.00 1017.08 1017.11 1016.95 1016.82 1016.76 1016.61 1016.38 1016.55 1016.81 1017.07 1017.26
1018.32 1018.44 1018.32 1018.30 1018.15 1017.99 1017.78 1017.76 1017.66 1017.47 1017.43 1017.35 1017.24 1017.14 1017.04 1016.90 1016.80 1016.69 1016.49 1016.36 1016.25 1016.20 1016.16 1016.24 1016.32 1016.43 1016.50 1016.58 1016.62 1016.63 1016.67 1016.74 1016.72 1016.72 1016.63 1016.39 1016.32 1016.16 1016.01 1016.09 1016.27 1016.50 1016.73
1018.51 1018.63 1018.54 1018.52 1018.45 1018.28 1017.90 1017.94 1017.82 1017.61 1017.51 1017.37 1017.25 1017.18 1017.04 1016.90 1016.80 1016.55 1016.26 1016.03 1015.86 1015.83 1015.75 1015.70 1015.80 1015.91 1016.03 1016.16 1016.16 1016.15 1016.19 1016.13 1016.19 1016.13 1016.03 1015.84 1015.72 1015.71 1015.63 1015.67 1015.80 1015.94 1016.15
1018.36 1018.62 1018.66 1018.59 1018.59 1018.58 1018.44 1018.30 1018.17 1018.01 1017.83 1017.57 1017.25 1017.10 1017.04 1016.87 1016.75 1016.54 1016.40 1016.22 1016.03 1015.76 1015.54 1015.45 1015.51 1015.56 1015.56 1015.59 1015.61 1015.65 1015.60 1015.70 1015.69 1015.49 1015.31 1015.22 1015.14 1015.05 1015.03 1015.17 1015.35 1015.51 1015.71
1018.35 1018.55 1018.69 1018.70 1018.73 1018.72 1018.63 1018.57 1018.44 1018.21 1017.97 1017.86 1017.63 1017.29 1017.12 1017.03 1016.93 1016.76 1016.66 1016.37 1016.22 1015.96 1015.72 1015.50 1015.25 1015.12 1015.09 1015.03 1014.98 1014.99 1014.99 1015.02 1015.05 1015.01 1014.77 1014.55 1014.47 1014.35 1014.36 1014.44 1014.69 1014.89 1015.11
1018.33 1018.48 1018.67 1018.70 1018.83 1018.79 1018.73 1018.70 1018.54 1018.39 1018.19 1017.93 1017.66 1017.35 1017.15 1017.10 1017.04 1016.83 1016.57 1016.33 1016.10 1015.90 1015.83 1015.57 1015.30 1015.06 1014.85 1014.62 1014.53 1014.55 1014.50 1014.52 1014.41 1014.32 1014.17 1013.96 1013.79 1013.68 1013.54 1013.69 1013.80 1014.07 1014.31
1018.31 1018.53 1018.63 1018.71 1018.75 1018.77 1018.77 1018.72 1018.64 1018.44 1018.19 1017.95 1017.72 1017.46 1017.15 1017.03 1016.95 1016.76 1016.61 1016.45 1016.26 1016.01 1015.69 1015.54 1015.35 1015.13 1014.83 1014.50 1014.39 1014.17 1014.19 1014.08 1013.91 1013.82 1013.70 1013.45 1013.39 1013.20 1013.04 1012.92 1012.93 1013.15 1013.39
1018.23 1018.41 1018.50 1018.66 1018.67 1018.71 1018.71 1018.62 1018.51 1018.39 1018.10 1017.97 1017.69 1017.37 1017.15 1016.88 1016.75 1016.69 1016.64 1016.53 1016.23 1015.92 1015.70 1015.44 1015.12 1014.84 1014.69 1014.41 1014.23 1014.05 1013.86 1013.73 1013.60 1013.44 1013.25 1013.07 1012.85 1012.83 1012.97 1012.65 1012.55 1012.41 1012.53
1018.05 1018.30 1018.45 1018.51 1018.60 1018.65 1018.65 1018.60 1018.45 1018.28 1018.15 1018.02 1017.82 1017.56 1017.23 1016.96 1016.71 1016.57 1016.53 1016.42 1016.05 1015.84 1015.64 1015.51 1015.28 1014.98 1014.72 1014.51 1014.36 1014.04 1013.77 1013.52 1013.34 1013.17 1012.98 1012.92 1012.84 1012.67 1012.60 1012.51 1012.41 1012.17 1012.10
1017.69 1018.14 1018.44 1018.49 1018.63 1018.73 1018.56 1018.47 1018.50 1018.53 1018.44 1018.28 1018.02 1017.73 1017.37 1017.11 1016.85 1016.57 1016.41 1016.21 1015.90 1015.71 1015.56 1015.39 1015.15 1015.01 1014.85 1014.57 1014.29 1013.95 1013.70 1013.48 1013.17 1012.80 1012.74 1012.47 1012.24 1012.10 1011.95 1011.85 1011.83 1011.65 1011.60
1017.65 1018.02 1018.18 1018.48 1018.72 1018.76 1018.62 1018.61 1018.69 1018.70 1018.59 1018.38 1018.18 1017.78 1017.45 1017.25 1016.94 1016.66 1016.41 1016.12 1015.82 1015.73 1015.47 1015.20 1015.04 1014.73 1014.62 1014.47 1014.13 1013.84 1013.50 1013.22 1013.01 1012.79 1012.49 1011.97 1011.68 1011.49 1011.28 1011.07 1010.90 1010.91 1010.79
1017.63 1017.93 1018.23 1018.53 1018.77 1018.85 1018.85 1019.05 1019.16 1019.25 1018.87 1018.58 1018.07 1017.54 1017.31 1017.30 1017.13 1016.72 1016.50 1016.11 1015.74 1015.64 1015.40 1015.14 1014.93 1014.75 1014.44 1014.09 1014.12 1013.72 1013.35 1012.97 1012.80 1012.51 1012.30 1012.06 1011.70 1011.14 1010.89 1010.65 1010.46 1010.45 1010.29
1017.68 1018.06 1018.24 1018.51 1018.66 1018.76 1018.89 1019.01 1019.04 1019.03 1018.72 1018.45 1017.99 1017.61 1017.31 1017.25 1017.09 1016.70 1016.68 1016.43 1015.98 1015.66 1015.38 1015.08 1014.91 1014.84 1014.46 1014.14 1014.32 1014.05 1013.64 1013.25 1012.67 1012.58 1012.16 1011.83 1011.49 1011.04 1010.64 1009.99 1009.78 1009.65 1009.56
1017.83 1018.02 1018.21 1018.36 1018.52 1018.69 1018.76 1018.82 1018.88 1018.85 1018.72 1018.53 1018.14 1017.77 1017.38 1017.14 1016.93 1016.86 1016.71 1016.45 1016.21 1015.93 1015.63 1015.22 1014.89 1014.80 1014.57 1014.18 1014.15 1014.35 1013.93 1013.71 1013.31 1012.25 1012.09 1011.72 1011.39 1010.97 1010.46 1009.83 1009.32 1009.15 1008.90
1017.66 1017.86 1018.06 1018.24 1018.39 1018.47 1018.56 1018.65 1018.86 1018.96 1019.03 1018.56 1018.12 1017.71 1017.38 1017.28 1016.91 1016.79 1016.58 1016.33 1016.21 1015.96 1015.69 1015.43 1014.94 1014.72 1014.53 1014.44 1014.05 1013.89 1014.05 1013.98 1013.73 1012.82 1012.06 1011.66 1011.14 1010.70 1010.35 1010.01 1009.80 1009.21 1008.49
1017.47 1017.89 1018.00 1018.09 1018.13 1018.17 1018.24 1018.32 1018.59 1018.71 1018.60 1018.24 1017.99 1017.65 1017.38 1017.10 1016.84 1016.63 1016.42 1016.13 1016.04 1015.85 1015.67 1015.46 1015.08 1014.82 1014.60 1014.49 1014.40 1014.21 1013.99 1013.76 1013.52 1013.60 1012.49 1011.75 1011.17 1010.62 1010.24 1010.04 1009.64 1009.44 1008.55
1017.44 1017.74 1017.85 1017.95 1017.93 1017.89 1017.92 1017.96 1018.14 1018.32 1018.26 1018.16 1017.93 1017.70 1017.35 1016.99 1016.67 1016.56 1016.37 1016.19 1015.94 1015.73 1015.44 1015.24 1015.05 1014.78 1014.66 1014.58 1014.47 1014.22 1014.03 1013.85 1013.55 1013.40 1012.75 1012.21 1011.76 1010.91 1010.62 1010.44 1010.24 1009.83 1009.22
Thickness
5749 5750 5750 5748 5748 5747 5745 5744 5743 5743 5743 5743 5742 5741 5740 5740 5739 5739 5738 5737 5737 5738 5738 5738 5739 5739 5739 5738 5737 5736 5736 5735 5734 5733 5732 5731 5730 5729 5729 5731 5729 5730 5729
5754 5751 5750 5748 5747 5747 5745 5744 5743 5742 5741 5740 5740 5739 5738 5736 5736 5735 5735 5734 5735 5735 5735 5735 5735 5735 5735 5734 5734 5733 5733 5732 5732 5730 5729 5728 5728 5728 5727 5726 5726 5726 5725
5755 5752 5749 5747 5746 5745 5744 5743 5741 5741 5740 5739 5738 5736 5735 5734 5733 5733 5731 5731 5732 5733 5733 5733 5732 5732 5732 5731 5730 5730 5729 5729 5729 5728 5726 5725 5725 5726 5725 5724 5724 5723 5722
5753 5751 5749 5746 5744 5743 5743 5742 5741 5740 5739 5737 5736 5735 5734 5733 5732 5731 5730 5729 5731 5731 5729 5729 5729 5728 5728 5728 5727 5726 5726 5726 5726 5725 5723 5723 5723 5723 5722 5721 5721 5720 5719
5750 5749 5747 5745 5743 5742 5741 5741 5740 5739 5738 5737 5735 5733 5732 5731 5731 5730 5729 5728 5729 5729 5728 5727 5726 5725 5724 5724 5723 5722 5722 5721 5722 5721 5721 5719 5721 5720 5720 5719 5718 5717 5716
5746 5746 5745 5743 5741 5740 5740 5739 5739 5737 5736 5735 5734 5733 5731 5730 5729 5728 5727 5727 5727 5727 5727 5725 5725 5723 5722 5721 5721 5720 5720 5719 5718 5718 5717 5717 5718 5717 5715 5715 5715 5713 5712
5741 5742 5742 5741 5739 5737 5737 5737 5736 5735 5734 5733 5731 5730 5729 5728 5727 5727 5726 5726 5725 5725 5724 5723 5722 5721 5720 5719 5718 5717 5717 5717 5716 5716 5715 5714 5715 5714 5711 5709 5708 5708 5708
5739 5738 5738 5737 5736 5735 5734 5733 5733 5732 5732 5731 5729 5729 5728 5726 5725 5724 5724 5723 5723 5722 5721 5720 5720 5719 5717 5716 5715 5714 5713 5713 5712 5713 5713 5711 5710 5712 5709 5707 5704 5702 5702
5734 5734 5733 5733 5732 5731 5731 5730 5730 5729 5728 5727 5726 5725 5725 5724 5723 5722 5722 5721 5720 5719 5718 5717 5715 5714 5713 5712 5711 5710 5709 5708 5707 5708 5709 5707 5706 5708 5707 5705 5701 5699 5697
5728 5728 5729 5729 5728 5727 5727 5727 5727 5726 5725 5724 5723 5722 5721 5720 5720 5719 5719 5719 5718 5717 5715 5714 5712 5710 5709 5708 5707 5706 5705 5704 5702 5702 5703 5703 5701 5701 5702 5701 5699 5696 5694
5723 5722 5723 5722 5723 5723 5723 5722 5722 5721 5720 5719 5718 5718 5717 5717 5716 5716 5716 5716 5715 5714 5713 5711 5710 5707 5706 5704 5702 5701 5700 5699 5699 5699 5698 5699 5698 5696 5697 5696 5694 5692 5690
5717 5716 5718 5717 5717 5717 5718 5717 5717 5715 5714 5714 5714 5712 5712 5711 5711 5712 5712 5712 5712 5712 5711 5709 5707 5705 5704 5701 5700 5698 5697 5697 5696 5695 5695 5695 5695 5692 5692 5692 5690 5688 5686
5715 5712 5713 5712 5710 5709 5710 5709 5709 5708 5707 5707 5708 5708 5707 5707 5707 5707 5708 5708 5707 5707 5707 5706 5704 5702 5701 5700 5698 5696 5695 5693 5692 5692 5692 5691 5691 5690 5688 5687 5685 5683 5681
5711 5709 5706 5705 5703 5702 5702 5701 5701 5701 5700 5700 5700 5701 5702 5702 5701 5701 5701 5701 5701 5700 5700 5699 5700 5699 5698 5696 5695 5694 5692 5690 5688 5687 5687 5688 5688 5687 5685 5684 5681 5679 5676
5706 5704 5701 5698 5696 5695 5694 5693 5693 5693 5693 5694 5695 5695 5695 5695 5694 5695 5695 5695 5694 5694 5693 5693 5692 5692 5692 5692 5691 5688 5687 5685 5684 5683 5683 5683 5682 5682 5682 5679 5678 5675 5673
5701 5698 5696 5693 5690 5689 5687 5686 5686 5687 5688 5689 5689 5689 5689 5689 5689 5689 5688 5686 5684 5683 5683 5683 5683 5683 5683 5682 5682 5681 5679 5678 5677 5676 5675 5676 5676 5676 5673 5673 5672 5670 5669
5695 5692 5689 5686 5684 5682 5682 5682 5682 5682 5683 5683 5683 5683 5683 5683 5682 5681 5679 5677 5675 5674 5673 5672 5673 5673 5673 5672 5671 5670 5669 5667 5667 5668 5668 5667 5666 5665 5663 5664 5663 5664 5663
5690 5687 5684 5682 5679 5677 5677 5677 5676 5676 5676 5675 5674 5674 5675 5674 5673 5672 5669 5667 5666 5664 5663 5661 5660 5659 5659 5660 5660 5659 5659 5659 5658 5657 5658 5657 5656 5655 5653 5652 5652 5654 5654
5685 5681 5677 5675 5673 5672 5672 5671 5669 5666 5665 5664 5663 5664 5663 5662 5661 5660 5658 5656 5655 5654 5651 5650 5649 5648 5647 5647 5648 5650 5650 5649 5651 5651 5650 5648 5647 5646 5646 5645 5643 5643 5644
5679 5674 5673 5670 5667 5666 5665 5662 5660 5657 5656 5655 5654 5653 5651 5649 5648 5647 5645 5644 5644 5641 5639 5638 5638 5638 5638 5638 5640 5642 5643 5643 5642 5640 5639 5639 5639 5636 5635 5634 5634 5635 5635
5673 5670 5666 5663 5660 5657 5655 5651 5647 5644 5644 5643 5643 5643 5641 5638 5636 5635 5633 5632 5631 5629 5627 5626 5626 5628 5629 5632 5632 5634 5636 5635 5632 5629 5627 5624 5623 5623 5621 5619 5618 5618 5620
5667 5663 5660 5656 5653 5650 5646 5642 5638 5634 5634 5633 5633 5632 5630 5627 5625 5624 5622 5621 5622 5621 5620 5621 5621 5620 5623 5624 5621 5621 5621 5622 5620 5616 5614 5611 5609 5607 5605 5604 5602 5602 5603
5659 5656 5653 5649 5646 5641 5638 5633 5630 5627 5624 5622 5622 5621 5620 5619 5618 5616 5614 5613 5613 5612 5612 5613 5615 5615 5614 5614 5613 5609 5607 5605 5608 5608 5603 5599 5594 5587 5582 5581 5583 5586 5588
5653 5649 5645 5642 5638 5634 5630 5626 5621 5616 5613 5613 5614 5615 5614 5612 5611 5609 5607 5606 5604 5604 5604 5605 5608 5607 5606 5604 5604 5604 5599 5596 5594 5600 5591 5585 5576 5570 5567 5562 5562 5568 5578
5646 5639 5636 5634 5631 5628 5625 5621 5615 5611 5610 5610 5610 5610 5609 5607 5605 5603 5601 5600 5598 5598 5598 5598 5599 5599 5599 5597 5594 5592 5592 5589 5585 5578 5582 5573 5565 5560 5556 5551 5554 5559 5567
5637 5634 5631 5627 5625 5622 5619 5617 5613 5609 5606 5604 5604 5603 5602 5601 5601 5597 5595 5593 5593 5594 5595 5595 5594 5594 5592 5590 5589 5588 5586 5585 5583 5575 5571 5562 5555 5555 5551 5550 5550 5551 5557